Regional Weather Roundup
Issued by NWS Bismarck, ND

Home | Current Version | Previous Version | Text Only | Print | Product List | Glossary On
Versions: 1 2 3 4 5 6 7 8 9 10 11 12 13 14 15 16 17 18 19 20 21 22 23 24 25 26 27 28 29 30 31 32 33 34 35 36 37 38 39 40 41 42 43 44 45 46 47 48 49 50
000
ASUS43 KBIS 011720
RWRBIS

NWR BROADCAST TEXT
NATIONAL WEATHER SERVICE BISMARCK ND
1100 AM CST SUN FEB 01 2015

NOTE: "FAIR" INDICATES FEW OR NO CLOUDS BELOW 12,000 FEET WITH NO
SIGNIFICANT WEATHER AND/OR OBSTRUCTIONS TO VISIBILITY.


CITY           SKY/WX    TMP DP  RH WIND       PRES   REMARKS
WILLISTON      SUNNY     -4 -10  75 SW5       30.47F WCI -15
MINOT          SUNNY     -4 -15  59 W8        30.50R WCI -19
MINOT AFB      SUNNY     -5 -13  67 W5        30.49F WCI -16
BISMARCK       SUNNY     -3 -15  56 NW7       30.53R WCI -16
DICKINSON      SUNNY     -6 -11  79 W5        30.39S WCI -17
GARRISON         N/A     -6 -15  65 NW6       30.48F WCI -19
HETTINGER ARPT SUNNY     -1  -6  79 NW10      30.40F WCI -17
JAMESTOWN      SUNNY     -4 -16  56 N12       30.48F WCI -22
BEACH          FAIR      -2  -4  92 CALM      30.39F
CARRINGTON     FAIR      -4 -17  54 MISG      30.51R
CROSBY         FAIR       0  -8  71 SW8       30.43F WCI -15
HARVEY         FAIR      -6 -18  54 NW8       30.51S WCI -21
HAZEN          FAIR      -4 -17  54 NW6       30.51F WCI -16
LINTON         FAIR      -4 -13  65 N8        30.49R WCI -19
MANDAN         FAIR      -2 -13  60 NW6       30.49S WCI -14
OAKES            N/A      0 N/A N/A N17       30.47S WCI -21
RUGBY          FAIR      -9 -18  64 NW9       30.51S WCI -27
STANLEY        FAIR      -2 -11  65 W7        30.42S WCI -16
TIOGA          FAIR      -2  -9  71 W9        30.45S WCI -18
WATFORD CITY   FAIR      -4 -11  71 SW7       30.44F WCI -18
$$

CITY           SKY/WX    TMP DP  RH WIND       PRES   REMARKS
GRAND FORKS    MOSUNNY   -6 -17  59 N10       30.58F WCI -24
GRAND FORKS AF SUNNY     -6 -19  54 N8        30.57F WCI -22
DEVILS LAKE    SUNNY     -8 -20  54 NW6       30.50R WCI -21
FARGO          SUNNY     -2 -13  59 N17       30.53R WCI -23
CANDO          FAIR      -8 -18  59 W7        30.52S WCI -22
CAVALIER       FAIR      -8 -17  65 W5        30.58S WCI -19
GWINNER        SUNNY      0 -11  60 N20       30.48R WCI -22
ROLLA          FAIR      -6 -18  54 NW5       30.47R WCI -17
WALHALLA         N/A     -8 -18  59 W6        30.57S WCI -21
$$

CITY           SKY/WX    TMP DP  RH WIND       PRES   REMARKS
ABERDEEN       CLOUDY     1 -10  60 N23       30.47R WCI -22
MOBRIDGE       MOSUNNY   -1 -12  59 N18       30.44S WCI -22
BUFFALO          N/A      2  -4  76 NW15      30.29F WCI -17
RAPID CITY     SUNNY      5   1  83 N23G29    30.35S WCI -17
GLASGOW        MOSUNNY   -1  -6  79 SE10      30.39F WCI -17
SIDNEY         SUNNY     -2 -29  26 S5        30.50R WCI -12
WOLF POINT     SUNNY     -3  -9  75 SE3       30.45F
GLENDIVE       SUNNY     -2  -8  78 S6        30.43R WCI -14
MILES CITY     SUNNY      3  -1  83 S6        30.41F WCI  -8
BAKER          SUNNY     -1  -5  82 W9        30.38F WCI -16
$$

CITY           SKY/WX    TMP DP  RH WIND       PRES   REMARKS
BILLINGS       SUNNY      9   5  84 S6        30.30F WCI  -1
GREAT FALLS    SUNNY     11   8  88 S5        30.13F WCI   3
REGINA         MOSUNNY   -8 -13  77 SE8       30.37F WCI -23
ESTEVAN        SUNNY     -4 -11  71 SW5       30.44F WCI -15
$$




USA.gov is the U.S. government's official web portal to all federal, state and local government web resources and services.